Simultaneous Nadir Overpasses (SNOs) Predictions

Prediction of SNOs between AQUA and METOP-C Satellite Orbit:

Table of predicted SNOs for the next 14.0 days since TLE Epoch: 6/11/2022
Index Date (AQUA) Time (AQUA) Lat,Lon (AQUA) SZA (AQUA ) Date (METOP-C) Time (METOP-C) Lat,Lon (METOP-C) SZA (METOP-C ) Distance(km) Time Diff (sec)
1 06/13/2022 06:33:47 -73.82,-103.61 129.41 06/13/2022 06:32:34 -73.73,-104.03 129.48 16.99 73
2 06/13/2022 07:23:16 73.92, 63.81 50.70 06/13/2022 07:23:09 73.92, 63.77 50.70 1.24 7
3 06/13/2022 08:12:43 -74.01,-128.75 129.21 06/13/2022 08:13:50 -74.00,-128.70 129.23 1.79 67
4 06/16/2022 02:07:33 -73.92, -37.23 129.43 06/16/2022 02:06:53 -73.93, -37.14 129.42 3.20 40
5 06/16/2022 02:57:01 73.96, 130.30 50.62 06/16/2022 02:57:31 73.97, 130.29 50.62 0.53 30
6 06/18/2022 20:51:48 73.78,-138.00 50.36 06/18/2022 20:50:36 73.73,-138.53 50.34 17.22 72
7 06/18/2022 21:41:16 -73.92, 29.33 129.49 06/18/2022 21:41:15 -73.93, 29.26 129.48 2.22 1
8 06/18/2022 22:30:45 74.03,-163.27 50.62 06/18/2022 22:31:52 74.01,-163.20 50.60 2.61 67
9 06/21/2022 16:25:34 73.92, -71.72 50.49 06/21/2022 16:24:55 73.92, -71.67 50.50 1.50 39
10 06/21/2022 17:15:01 -74.00, 95.73 129.42 06/21/2022 17:15:37 -73.98, 95.77 129.46 3.42 36
11 06/24/2022 11:09:50 -73.91,-172.76 129.49 06/24/2022 11:08:40 -73.89,-172.70 129.50 3.31 70
12 06/24/2022 11:59:18 73.97, -5.25 50.58 06/24/2022 11:59:17 73.96, -5.19 50.57 2.15 1



Historial Predications of SNOs between AQUA and METOP-C
